Location: *
(48.8780°N, 19.2358°E)
Time: 13:51:38
(UTC+00:00)

Cosmos 1844 Rocket - Pass Details

Date: 18 October 2019
Orbit: 826 x 843 km, 71.0° (Epoch: 17 November)

Event Time Altitude Azimuth Distance (km) Brightness Sun altitude
Rises 17:15:30 0° 229° (SW) 3,389 6.6 -15.0°
Reaches altitude 10° 17:18:04 10° 236° (SW) 2,456 5.9 -15.5°
Maximum altitude 17:23:25 43° 307° (NW) 1,166 3.9 -16.3°
Drops below altitude 10° 17:28:47 10° 19° (NNE) 2,460 5.0 -17.2°
Sets 17:31:22 0° 26° (NNE) 3,395 5.6 -17.7°
